Weather History for Galax, VA

Change the Weather History Date:

Saturday, February 1, 2014

  Actual Average (KBLF) Record (KBLF)
Temperature  
Mean Temperature 42 °F 35 °F  
Max Temperature 53 °F 43 °F 71 °F (1990)
Min Temperature 30 °F 27 °F -2 °F (1971)
Degree Days  
Heating Degree Days 24 30  
Month to date heating degree days 30  
Since 1 July heating degree days 2750  
Cooling Degree Days 0 0  
Month to date cooling degree days 0  
Year to date cooling degree days 0  
Moisture  
Dew Point 3 °F    
Average Humidity 25    
Maximum Humidity 44    
Minimum Humidity 4    
Precipitation  
Precipitation 0.00 in 0.09 in 0.85 in (1985)
Month to date precipitation 0.09  
Year to date precipitation 2.99  
Snow  
Snow 0.00 in - - ()
Month to date snowfall  
Since 1 July snowfall  
Snow Depth -    
Sea Level Pressure  
Sea Level Pressure 30.13 in    
Wind  
Wind Speed 6 mph (South)    
Max Wind Speed 12 mph    
Max Gust Speed 20 mph    
Visibility 10 miles    
Events      
T = Trace of Precipitation, MM = Missing Value Source: NWS Daily Summary

Daily Weather History Graph

Daily Weather History Graph

Search for Another Location

Airport:

Trip Planner

Search our weather history database for the weather conditions in past years. The results will help you decide how hot, cold, wet, or windy it might be!

Date:

Astronomy

Feb. 01, 2014 Rise Set
Actual Time 7:25 AM EST 5:48 PM EST
Civil Twilight 6:58 AM EST 6:16 PM EST
Nautical Twilight 6:27 AM EST 6:47 PM EST
Astronomical Twilight 5:56 AM EST 7:17 PM EST
Moon 8:18 AM EST (2/1) 8:17 PM EST (2/1)
Length of Visible Light 11h 18m
Length of Day
10h 23m
Waxing Crescent, 5% of the Moon is Illuminated
Feb 1
Waxing Crescent
Feb 6
First Quarter
Feb 14
Full
Feb 22
Last Quarter
Mar 1
New

Hourly Weather History & Observations

Time (EST) Temp. Windchill Dew Point Humidity Pressure Visibility Wind Dir Wind Speed Gust Speed Precip Events Conditions
12:15 AM 35.6 °F 30.7 °F 8.6 °F 33% 30.16 in 10.0 mi South 5.8 mph - N/A   Clear
12:35 AM 35.6 °F 30.7 °F 10.4 °F 35% 30.15 in 10.0 mi South 5.8 mph - N/A   Clear
12:55 AM 35.6 °F 29.9 °F 10.4 °F 35% 30.15 in 10.0 mi South 6.9 mph - N/A   Clear
1:15 AM 35.6 °F 31.7 °F 10.4 °F 35% 30.15 in 10.0 mi SSW 4.6 mph - N/A   Clear
1:35 AM 35.6 °F 32.8 °F 10.4 °F 35% 30.15 in 10.0 mi SSW 3.5 mph - N/A   Clear
1:55 AM 35.6 °F 32.8 °F 10.4 °F 35% 30.16 in 10.0 mi SW 3.5 mph - N/A   Clear
2:15 AM 32.0 °F 28.7 °F 10.4 °F 41% 30.16 in 10.0 mi SW 3.5 mph - N/A   Clear
2:35 AM 32.0 °F 25.6 °F 12.2 °F 44% 30.16 in 10.0 mi SW 6.9 mph - N/A   Clear
2:55 AM 33.8 °F 27.7 °F 10.4 °F 38% 30.15 in 10.0 mi SSW 6.9 mph - N/A   Clear
3:15 AM 32.0 °F 25.6 °F 10.4 °F 41% 30.15 in 10.0 mi SSW 6.9 mph - N/A   Clear
3:35 AM 33.8 °F 28.6 °F 10.4 °F 38% 30.15 in 10.0 mi South 5.8 mph - N/A   Clear
3:55 AM 33.8 °F 28.6 °F 10.4 °F 38% 30.15 in 10.0 mi South 5.8 mph - N/A   Clear
4:15 AM 35.6 °F 31.7 °F 10.4 °F 35% 30.15 in 10.0 mi South 4.6 mph - N/A   Clear
4:35 AM 33.8 °F 28.6 °F 10.4 °F 38% 30.15 in 10.0 mi South 5.8 mph - N/A   Clear
4:55 AM 33.8 °F 30.8 °F 8.6 °F 35% 30.16 in 10.0 mi South 3.5 mph - N/A   Clear
5:15 AM 32.0 °F - 10.4 °F 41% 30.17 in 10.0 mi Calm Calm - N/A   Clear
5:35 AM 30.2 °F 26.7 °F 10.4 °F 44% 30.17 in 10.0 mi West 3.5 mph - N/A   Clear
5:55 AM 30.2 °F 26.7 °F 10.4 °F 44% 30.18 in 10.0 mi West 3.5 mph - N/A   Clear
6:15 AM 32.0 °F 28.7 °F 10.4 °F 41% 30.18 in 10.0 mi SW 3.5 mph - N/A   Clear
6:35 AM 33.8 °F 27.7 °F 10.4 °F 38% 30.18 in 10.0 mi SSW 6.9 mph - N/A   Clear
6:55 AM 33.8 °F 27.7 °F 8.6 °F 35% 30.19 in 10.0 mi SSW 6.9 mph - N/A   Clear
7:15 AM 33.8 °F 29.6 °F 8.6 °F 35% 30.19 in 10.0 mi South 4.6 mph - N/A   Clear
7:35 AM 33.8 °F 29.6 °F 8.6 °F 35% 30.19 in 10.0 mi South 4.6 mph - N/A   Clear
7:55 AM 32.0 °F 27.5 °F 10.4 °F 41% 30.19 in 10.0 mi South 4.6 mph - N/A   Clear
8:15 AM 32.0 °F 28.7 °F 12.2 °F 44% 30.19 in 10.0 mi SSW 3.5 mph - N/A   Clear
8:35 AM 32.0 °F 27.5 °F 10.4 °F 41% 30.19 in 10.0 mi SSW 4.6 mph - N/A   Clear
8:55 AM 33.8 °F 30.8 °F 12.2 °F 41% 30.20 in 10.0 mi WSW 3.5 mph - N/A   Clear
9:15 AM 35.6 °F 31.7 °F 8.6 °F 33% 30.20 in 10.0 mi WSW 4.6 mph - N/A   Clear
9:35 AM 37.4 °F 34.9 °F 10.4 °F 33% 30.20 in 10.0 mi SSW 3.5 mph - N/A   Clear
9:55 AM 41.0 °F 38.0 °F 10.4 °F 29% 30.20 in 10.0 mi South 4.6 mph - N/A   Clear
10:15 AM 44.6 °F 42.2 °F 6.8 °F 21% 30.21 in 10.0 mi South 4.6 mph - N/A   Clear
10:35 AM 46.4 °F 41.9 °F 5.0 °F 18% 30.19 in 10.0 mi SSE 9.2 mph - N/A   Clear
10:55 AM 48.2 °F - 6.8 °F 19% 30.19 in 10.0 mi South 3.5 mph - N/A   Clear
11:15 AM 51.8 °F - -14.8 °F 6% 30.18 in 10.0 mi SSE 8.1 mph - N/A   Clear
11:35 AM 51.8 °F - -22.0 °F 4% 30.17 in 10.0 mi South 5.8 mph - N/A   Clear
11:55 AM 53.6 °F - -18.4 °F 5% 30.16 in 10.0 mi SE 8.1 mph - N/A   Clear
12:15 PM 51.8 °F - -18.4 °F 5% 30.15 in 10.0 mi South 8.1 mph - N/A   Clear
12:35 PM 51.8 °F - -16.6 °F 5% 30.14 in 10.0 mi SSE 11.5 mph 17.3 mph N/A   Clear
12:55 PM 53.6 °F - -16.6 °F 5% 30.13 in 10.0 mi SSE 11.5 mph 18.4 mph N/A   Clear
1:15 PM 53.6 °F - -16.6 °F 5% 30.13 in 10.0 mi South 10.4 mph - N/A   Clear
1:35 PM 51.8 °F - -13.0 °F 7% 30.11 in 10.0 mi South 6.9 mph - N/A   Clear
1:55 PM 51.8 °F - -14.8 °F 6% 30.10 in 10.0 mi South 8.1 mph 17.3 mph N/A   Clear
2:15 PM 53.6 °F - -7.6 °F 8% 30.10 in 10.0 mi South 10.4 mph 18.4 mph N/A   Clear
2:35 PM 53.6 °F - -9.4 °F 7% 30.10 in 10.0 mi South 11.5 mph 18.4 mph N/A   Clear
2:55 PM 51.8 °F - -9.4 °F 8% 30.10 in 10.0 mi SSE 5.8 mph - N/A   Scattered Clouds
3:15 PM 51.8 °F - -11.2 °F 7% 30.09 in 10.0 mi SSE 11.5 mph 16.1 mph N/A   Mostly Cloudy
3:35 PM 51.8 °F - -14.8 °F 6% 30.09 in 10.0 mi SSE 10.4 mph 19.6 mph N/A   Scattered Clouds
3:55 PM 53.6 °F - -13.0 °F 6% 30.09 in 10.0 mi South 9.2 mph - N/A   Clear
4:15 PM 51.8 °F - -11.2 °F 7% 30.10 in 10.0 mi South 10.4 mph 16.1 mph N/A   Scattered Clouds
4:35 PM 51.8 °F - -9.4 °F 8% 30.09 in 10.0 mi SSE 9.2 mph 16.1 mph N/A   Clear
4:55 PM 51.8 °F - -4.0 °F 10% 30.09 in 10.0 mi South 10.4 mph 16.1 mph N/A   Scattered Clouds
5:15 PM 48.2 °F - -0.4 °F 13% 30.10 in 10.0 mi South 9.2 mph - N/A   Clear
5:35 PM 48.2 °F - 1.4 °F 15% 30.10 in 10.0 mi South 4.6 mph - N/A   Clear
5:55 PM 46.4 °F 42.9 °F 1.4 °F 16% 30.10 in 10.0 mi SSE 6.9 mph - N/A   Clear
6:15 PM 46.4 °F 41.9 °F 3.2 °F 17% 30.09 in 10.0 mi SSE 9.2 mph 16.1 mph N/A   Clear
6:35 PM 44.6 °F 40.7 °F 3.2 °F 18% 30.09 in 10.0 mi South 6.9 mph - N/A   Clear
6:55 PM 44.6 °F 40.2 °F 3.2 °F 18% 30.09 in 10.0 mi South 8.1 mph - N/A   Clear
7:15 PM 44.6 °F 39.7 °F 5.0 °F 20% 30.09 in 10.0 mi South 9.2 mph 16.1 mph N/A   Clear
7:35 PM 44.6 °F 39.2 °F 5.0 °F 20% 30.09 in 10.0 mi South 10.4 mph - N/A   Clear
7:55 PM 44.6 °F 39.7 °F 5.0 °F 20% 30.09 in 10.0 mi South 9.2 mph - N/A   Clear
8:15 PM 44.6 °F 39.2 °F 6.8 °F 21% 30.09 in 10.0 mi South 10.4 mph - N/A   Clear
8:35 PM 44.6 °F 40.2 °F 8.6 °F 23% 30.09 in 10.0 mi South 8.1 mph - N/A   Clear
8:55 PM 44.6 °F 39.7 °F 8.6 °F 23% 30.09 in 10.0 mi South 9.2 mph - N/A   Clear
9:15 PM 44.6 °F 40.2 °F 10.4 °F 25% 30.09 in 10.0 mi South 8.1 mph - N/A   Clear
9:35 PM 44.6 °F 40.7 °F 10.4 °F 25% 30.08 in 10.0 mi South 6.9 mph - N/A   Clear
9:55 PM 44.6 °F 40.7 °F 10.4 °F 25% 30.08 in 10.0 mi South 6.9 mph - N/A   Clear
10:15 PM 42.8 °F 38.6 °F 12.2 °F 29% 30.08 in 10.0 mi South 6.9 mph - N/A   Clear
10:35 PM 42.8 °F 38.0 °F 12.2 °F 29% 30.08 in 10.0 mi SSW 8.1 mph - N/A   Clear
10:55 PM 42.8 °F 38.0 °F 12.2 °F 29% 30.08 in 10.0 mi South 8.1 mph - N/A   Clear
11:15 PM 42.8 °F 38.6 °F 14.0 °F 31% 30.07 in 10.0 mi South 6.9 mph - N/A   Clear
11:35 PM 42.8 °F 38.6 °F 15.8 °F 34% 30.06 in 10.0 mi South 6.9 mph - N/A   Clear
11:55 PM 42.8 °F 40.1 °F 15.8 °F 34% 30.06 in 10.0 mi South 4.6 mph - N/A   Clear